Location: Unspecified
(0.0000°N, 0.0000°E)
Time: 07:28:48
(UTC+02:00)

Meteor PRIRODA - Visible Passes

Search period start: 06 May 2016 00:00
Search period end: 16 May 2016 00:00
Orbit: 496 x 519 km, 97.4° (Epoch: 04 May)

Date Brightness Start Highest point End Pass type
(mag) Time Alt. Az. Time Alt. Az. Time Alt. Az.
06 May 5.2 06:47:43 10° NNW 06:49:49 20° WNW 06:49:49 20° WNW visible
07 May 4.6 06:29:52 10° N 06:32:24 33° NW 06:32:24 33° NW visible
08 May 4.5 06:12:25 10° N 06:15:00 43° N 06:15:00 43° N visible
09 May 5.3 05:55:17 10° NNE 05:57:34 32° NE 05:57:34 32° NE visible
10 May 6.3 05:38:32 10° NE 05:40:09 20° ENE 05:40:09 20° ENE visible
11 May 7.0 05:22:26 10° ENE 05:22:43 11° ENE 05:22:43 11° ENE visible
11 May 5.4 06:55:39 10° NW 06:57:34 16° WNW 06:57:34 16° WNW visible
12 May 4.8 06:37:31 10° NNW 06:40:07 28° WNW 06:40:07 28° WNW visible
13 May 4.3 06:19:53 10° N 06:22:41 44° NNW 06:22:41 44° NNW visible
14 May 4.7 06:02:36 10° NNE 06:05:14 42° NE 06:05:14 42° NE visible
15 May 5.8 05:45:40 10° NE 05:47:47 26° ENE 05:47:47 26° ENE visible
